Location: Bottom School (historical)
(37.9078°N, 89.3593°W)
Time: 22:15:16
(UTC+00:00)

AAUSAT CUBESAT 2 - Visible Passes

Search period start: 22 March 2023 00:00
Search period end: 01 April 2023 00:00
Orbit: 558 x 564 km, 97.6° (Epoch: 22 March)

Date Brightness Start Highest point End Pass type
(mag) Time Alt. Az. Time Alt. Az. Time Alt. Az.
22 Mar ? 10:10:39 10° NNE 10:14:35 50° E 10:18:30 10° S visible
23 Mar ? 10:09:50 10° NNE 10:13:46 49° E 10:17:39 10° S visible
24 Mar ? 10:09:00 10° NNE 10:12:55 48° E 10:16:48 10° S visible
25 Mar ? 10:08:08 10° NNE 10:12:02 47° E 10:15:54 10° S visible
26 Mar ? 10:07:14 10° NNE 10:11:07 45° E 10:14:58 10° S visible
27 Mar ? 10:06:18 10° NNE 10:10:11 44° E 10:14:01 10° S visible
28 Mar ? 10:05:21 10° NNE 10:09:13 43° E 10:13:02 10° S visible
29 Mar ? 10:04:23 10° NNE 10:08:13 42° E 10:12:00 10° S visible
30 Mar ? 10:03:22 10° NNE 10:07:10 41° E 10:10:58 10° S visible
31 Mar ? 10:02:19 10° NNE 10:06:07 39° E 10:09:53 10° SSE visible
